TimeCST,TemperatureF,Dew PointF,Humidity,Sea Level PressureIn,VisibilityMPH,Wind Direction,Wind SpeedMPH,Gust SpeedMPH,PrecipitationIn,Events,Conditions,WindDirDegrees,DateUTC
12:53 AM,51.1,44.1,77,30.14,10.0,NE,6.9,-,N/A,,Clear,50,2012-11-21 06:53:00
1:53 AM,50.0,44.1,80,30.15,10.0,NE,8.1,-,N/A,,Clear,40,2012-11-21 07:53:00
2:53 AM,48.9,43.0,80,30.15,10.0,NE,4.6,-,N/A,,Clear,50,2012-11-21 08:53:00
3:53 AM,48.0,43.0,83,30.15,10.0,ENE,5.8,-,N/A,,Clear,70,2012-11-21 09:53:00
4:53 AM,46.9,43.0,86,30.16,10.0,NE,5.8,-,N/A,,Clear,50,2012-11-21 10:53:00
5:53 AM,46.0,43.0,89,30.17,10.0,East,5.8,-,N/A,,Clear,80,2012-11-21 11:53:00
6:53 AM,45.0,42.1,90,30.18,10.0,ENE,4.6,-,N/A,,Clear,70,2012-11-21 12:53:00
7:53 AM,48.0,43.0,83,30.19,10.0,ESE,6.9,-,N/A,,Clear,110,2012-11-21 13:53:00
8:53 AM,55.0,46.0,72,30.20,10.0,ESE,4.6,-,N/A,,Clear,110,2012-11-21 14:53:00
9:53 AM,63.0,48.0,58,30.19,10.0,South,8.1,-,N/A,,Clear,170,2012-11-21 15:53:00
10:53 AM,66.9,50.0,54,30.19,10.0,South,6.9,-,N/A,,Clear,170,2012-11-21 16:53:00
11:53 AM,73.0,51.1,46,30.16,10.0,SSW,13.8,-,N/A,,Clear,200,2012-11-21 17:53:00
12:53 PM,75.0,52.0,44,30.11,10.0,South,16.1,23.0,N/A,,Clear,180,2012-11-21 18:53:00
1:53 PM,77.0,48.0,36,30.08,10.0,SSW,16.1,23.0,N/A,,Clear,200,2012-11-21 19:53:00
2:53 PM,78.1,48.0,35,30.05,10.0,South,13.8,-,N/A,,Clear,180,2012-11-21 20:53:00
3:53 PM,75.9,42.1,30,30.05,10.0,South,17.3,-,N/A,,Clear,190,2012-11-21 21:53:00
4:53 PM,75.0,46.0,36,30.04,10.0,South,15.0,-,N/A,,Clear,180,2012-11-21 22:53:00
5:53 PM,68.0,46.9,47,30.04,10.0,South,10.4,-,N/A,,Clear,170,2012-11-21 23:53:00
6:53 PM,66.0,48.0,52,30.04,10.0,SSE,10.4,-,N/A,,Clear,150,2012-11-22 00:53:00
7:53 PM,64.0,48.9,58,30.05,10.0,SSE,11.5,-,N/A,,Clear,160,2012-11-22 01:53:00
8:53 PM,62.1,48.9,62,30.04,10.0,South,11.5,-,N/A,,Clear,170,2012-11-22 02:53:00
9:53 PM,61.0,48.0,62,30.02,10.0,South,10.4,-,N/A,,Clear,170,2012-11-22 03:53:00
10:53 PM,60.1,48.9,67,30.00,10.0,South,10.4,-,N/A,,Clear,170,2012-11-22 04:53:00
11:53 PM,60.1,48.9,67,29.98,10.0,South,11.5,-,N/A,,Clear,170,2012-11-22 05:53:00